| Date | Time | Temp. (oF) | Dew Point (oF) | Rel. Hum. (%) | Press. (in.) | Wind Dir. | Wind Speed (mph) | Hourly Rainfall (in.) |
|
|---|---|---|---|---|---|---|---|---|---|
| 1 | 04/16 | 00:00 | 41 | 40 | 99 | 30.18 | SW | 1 | 0.00 |
| 2 | 04/15 | 23:00 | 42 | 41 | 99 | 30.17 | SW | 3 | 0.00 |
| 3 | 04/15 | 22:00 | 42 | 41 | 98 | 30.16 | SSW | 3 | 0.00 |
| 4 | 04/15 | 21:00 | 42 | 40 | 96 | 30.14 | SW | 3 | 0.00 |
| 5 | 04/15 | 20:00 | 43 | 41 | 94 | 30.11 | WSW | 1 | 0.00 |
| 6 | 04/15 | 19:00 | 43 | 41 | 93 | 30.09 | NW | 0 | 0.00 |
| 7 | 04/15 | 18:00 | 43 | 41 | 95 | 30.07 | S | 2 | 0.02 |
| 8 | 04/15 | 17:00 | 43 | 41 | 93 | 30.06 | SE | 0 | 0.06 |
| 9 | 04/15 | 16:00 | 43 | 41 | 93 | 30.06 | NNW | 2 | 0.04 |
| 10 | 04/15 | 15:00 | 43 | 40 | 90 | 30.04 | NE | 2 | 0.05 |
| 11 | 04/15 | 14:00 | 43 | 39 | 86 | 30.03 | E | 4 | 0.02 |
| 12 | 04/15 | 13:00 | 43 | 39 | 86 | 30.01 | E | 13 | 0.06 |
| 13 | 04/15 | 12:00 | 44 | 42 | 96 | 29.99 | ENE | 8 | 0.03 |
| 14 | 04/15 | 11:00 | 44 | 42 | 95 | 29.96 | ENE | 8 | 0.01 |
| 15 | 04/15 | 10:00 | 43 | 41 | 96 | 29.94 | NE | 7 | 0.03 |
| 16 | 04/15 | 09:00 | 44 | 43 | 98 | 29.92 | NNE | 7 | 0.03 |
| 17 | 04/15 | 08:00 | 46 | 45 | 100 | 29.90 | NE | 6 | 0.05 |
| 18 | 04/15 | 07:00 | 46 | 45 | 100 | 29.89 | NE | 4 | 0.08 |
| 19 | 04/15 | 06:00 | 45 | 45 | 100 | 29.87 | ENE | 5 | 0.03 |
| 20 | 04/15 | 05:00 | 45 | 45 | 100 | 29.85 | NE | 5 | 0.07 |
| 21 | 04/15 | 04:00 | 45 | 45 | 100 | 29.84 | ENE | 3 | 0.03 |
| 22 | 04/15 | 03:00 | 45 | 45 | 100 | 29.84 | NE | 4 | 0.01 |
| 23 | 04/15 | 02:00 | 45 | 45 | 100 | 29.84 | NE | 6 | 0.00 |
| 24 | 04/15 | 01:00 | 44 | 44 | 100 | 29.84 | NNE | 5 | 0.01 |